[[{"header":{"parameterUnit":"m.s-1","parameterCategory":1,"la1":30.2991,"la2":30.254,"lo1":-89.0895,"lo2":-89.0444,"dy":0.0017,"dx":0.0017,"nx":28,"ny":28,"refTime":"2024-04-30T03:00:00:Z","depth":0,"parameterNumber":2,"parameterNumberName":"U-component_of_WINDS"},"data":[0,0,0,0,0,0,0,0,0,0,0,0,0,0,0,0,0,0,0,0,0,0,0,0,0,0,0,0,0,0,0,0,0,0,0,0,0,0,0,0,0,0,0,0,0,0,0,0,0,0,0,0,0,0,0,0,0,0,1.1604,1.1603,0,1.1496,1.1495,1.1494,1.1399,1.1398,1.1397,1.1396,1.1284,1.1282,1.128,0,0,0,0,0,0,0,0,0,0,0,0,0,1.1728,1.1727,1.1604,1.1603,1.1601,1.1497,1.1495,1.1494,1.1399,1.1398,1.1396,1.1395,1.1285,1.1283,1.128,0,0,0,0,0,0,0,0,0,0,0,0,0,1.1653,1.1726,1.1604,1.1542,1.1535,1.1497,1.1495,1.1493,1.1399,1.1398,1.1396,1.1395,1.1286,1.1283,1.128,1.1295,0,0,1.1271,1.127,0,0,0,0,0,0,0,0,1.1657,1.1648,1.1552,1.1546,1.1538,1.1459,1.1498,1.1427,1.14,1.1451,1.1396,1.1394,1.1344,1.1336,1.1319,1.129,1.1285,1.1271,1.1269,1.1268,1.1267,0,0,0,0,0,0,0,1.1663,1.1653,1.1561,1.1551,1.1542,1.1519,1.1507,1.1484,1.1408,1.1446,1.1439,1.1428,1.134,1.1322,1.1316,1.1283,1.1271,1.1268,1.1266,1.1265,1.1263,1.1264,0,0,0,0,0,0,1.1678,1.1658,1.1565,1.1558,1.1595,1.1518,1.1504,1.1486,1.1408,1.1394,1.1429,1.1424,1.1328,1.132,1.1312,1.1326,1.1268,1.1265,1.1263,1.1261,1.1263,1.1265,0,0,0,0,0,0,1.1681,1.167,1.1569,1.1606,1.1591,1.1518,1.1499,1.1485,1.1468,1.1395,1.1381,1.1426,1.1327,1.1316,1.13,1.132,1.1264,1.1261,1.1259,1.1262,1.1264,1.1353,0,0,0,0,0,0,1.1685,1.1672,1.1676,1.1607,1.159,1.156,1.15,1.1484,1.1463,1.1455,1.1388,1.1375,1.1324,1.1305,1.1298,1.1315,1.1259,1.1257,1.126,1.1263,1.1348,1.1358,1.1367,0,0,0,0,0,1.1689,1.1705,1.1677,1.1666,1.1594,1.1561,1.1551,1.1493,1.1465,1.1469,1.1423,1.1377,1.132,1.1304,1.1295,1.1312,1.1255,1.1259,1.1263,1.1344,1.1356,1.1367,0,0,0,0,0,0,1.1778,1.1694,1.1663,1.1656,1.1617,1.1545,1.1548,1.1508,1.1474,1.1468,1.1397,1.1383,1.1376,1.1342,1.1327,1.1324,1.1281,1.1284,1.1346,1.1357,1.1367,1.1375,1.1256,0,0,0,0,0,1.1797,1.1777,1.1705,1.1706,1.1688,1.1622,1.1605,1.1564,1.152,1.1503,1.1455,1.1414,1.1387,1.137,1.134,1.1343,1.1328,1.135,1.136,1.1368,1.1371,1.1372,1.1382,1.1277,1.1277,1.1277,0,0,1.1835,1.1787,1.1779,1.1723,1.1687,1.1669,1.1608,1.1591,1.1577,1.15,1.1483,1.1447,1.1396,1.1391,1.1385,1.1362,1.1396,1.1373,1.138,1.1378,1.1377,1.1387,1.1396,1.128,1.128,1.1279,0,0,1.1896,1.1857,1.1855,1.1821,1.1769,1.1725,1.1725,1.166,1.1634,1.1616,1.1558,1.1541,1.1494,1.1462,1.1439,1.1491,1.1448,1.1483,1.1533,1.1535,1.1543,1.155,1.1571,1.1579,1.1486,1.1486,1.1486,0,1.195,1.192,1.1859,1.1846,1.1824,1.1755,1.1753,1.1722,1.1663,1.165,1.1625,1.1567,1.1528,1.1515,1.1528,1.1511,1.151,1.1491,1.1547,1.1554,1.1559,1.1578,1.1586,1.1491,1.1491,1.149,1.149,0,1.1991,1.1971,1.1976,1.1922,1.19,1.1893,1.1831,1.1816,1.1778,1.1737,1.1721,1.1672,1.1633,1.1627,1.1588,1.1609,1.1596,1.1561,1.1517,1.1575,1.1591,1.1598,1.1498,1.1496,1.1495,1.1494,0,0,1.2103,1.2017,1.202,1.1996,1.1934,1.1918,1.1908,1.187,1.186,1.1822,1.1813,1.1777,1.1744,1.1719,1.1676,1.1678,1.1725,1.1642,1.1639,1.166,1.1747,1.1776,1.1785,1.1696,1.1697,1.1698,1.1752,0,1.2155,1.2134,1.2079,1.2075,1.2058,1.1993,1.1984,1.1946,1.1909,1.1888,1.1846,1.1823,1.178,1.1765,1.1764,1.172,1.1742,1.1715,1.1688,1.1688,1.1704,1.1793,1.1822,1.1875,1.1758,1.1759,1.176,0,1.2212,1.218,1.2175,1.2116,1.2107,1.21,1.2063,1.2044,1.2,1.1973,1.1946,1.19,1.1887,1.1847,1.1829,1.1812,1.1798,1.1775,1.1776,1.1772,1.1728,1.1793,1.1891,1.19,1.1769,1.1768,1.1767,0,1.2297,1.2252,1.2244,1.2225,1.2156,1.2153,1.2124,1.2079,1.2061,1.2028,1.2016,1.1982,1.1964,1.194,1.1886,1.1861,1.1875,1.183,1.1853,1.1855,1.1859,1.186,1.1958,1.1849,1.1849,1.1849,1.1848,0,1.2361,1.2361,1.2281,1.2276,1.2275,1.2213,1.2213,1.2178,1.2138,1.2126,1.2067,1.2057,1.1986,1.1968,1.1926,1.1919,1.1911,1.1889,1.1878,1.1895,1.1898,1.1886,1.1881,1.1851,1.185,1.185,1.1849,0,1.2455,1.2402,1.2389,1.2326,1.231,1.2312,1.2258,1.2251,1.2211,1.2196,1.2189,1.2126,1.2102,1.2046,1.2007,1.1978,1.1983,1.1962,1.1999,1.1992,1.2019,1.2018,1.2113,1.2124,1.2008,1.2009,1.201,0,1.25,1.2499,1.2436,1.2424,1.2398,1.2379,1.2361,1.2301,1.2285,1.2236,1.2236,1.2207,1.2181,1.2146,1.2097,1.2068,1.2046,1.2082,1.2041,1.206,1.2049,1.205,1.2051,1.2091,1.2093,1.2094,1.2095,0,1.2586,1.2561,1.2537,1.2505,1.2486,1.2457,1.2426,1.2419,1.2351,1.2336,1.2312,1.2292,1.2253,1.2226,1.219,1.216,1.2117,1.2108,1.2112,1.213,1.2152,1.2143,1.2024,1.2106,1.2105,1.2104,1.2104,1.2103,1.2658,1.2655,1.2611,1.2588,1.2558,1.2531,1.2522,1.2482,1.246,1.2425,1.239,1.237,1.2328,1.2275,1.2249,1.2232,1.221,1.2215,1.2217,1.222,1.2228,1.2154,1.2225,1.2225,1.2224,1.2224,1.2224,0,1.2742,1.2712,1.2691,1.265,1.2632,1.2594,1.2557,1.2545,1.2528,1.2493,1.2469,1.2443,1.2417,1.2367,1.2338,1.2334,1.2314,1.2329,1.2329,1.2323,1.2249,1.2249,1.2346,1.2346,1.2346,1.2346,1.2346,1.2346,1.2784,1.2778,1.2748,1.2726,1.2695,1.2676,1.2659,1.2634,1.2606,1.2579,1.2558,1.2526,1.2485,1.2453,1.2428,1.2414,1.2407,1.2428,1.2408,1.234,1.2328,1.2317,1.2317,1.2427,1.2427,1.2484,1.2485,1.2485]},{"header":{"parameterUnit":"m.s-1","parameterCategory":1,"la1":30.2991,"la2":30.254,"lo1":-89.0895,"lo2":-89.0444,"dy":0.0017,"dx":0.0017,"nx":28,"ny":28,"refTime":"2024-04-30T03:00:00:Z","depth":0,"parameterNumber":3,"parameterNumberName":"V-component_of_WINDS"},"data":[0,0,0,0,0,0,0,0,0,0,0,0,0,0,0,0,0,0,0,0,0,0,0,0,0,0,0,0,0,0,0,0,0,0,0,0,0,0,0,0,0,0,0,0,0,0,0,0,0,0,0,0,0,0,0,0,0,0,-2.5077,-2.5076,0,-2.5001,-2.5,-2.4999,-2.4935,-2.4935,-2.4934,-2.4933,-2.4846,-2.4845,-2.4843,0,0,0,0,0,0,0,0,0,0,0,0,0,-2.5161,-2.5159,-2.5077,-2.5076,-2.5075,-2.5001,-2.5,-2.4999,-2.4935,-2.4935,-2.4934,-2.4933,-2.4847,-2.4845,-2.4843,0,0,0,0,0,0,0,0,0,0,0,0,0,-2.5108,-2.5159,-2.5077,-2.5035,-2.503,-2.5001,-2.5,-2.4998,-2.4935,-2.4934,-2.4933,-2.4933,-2.4847,-2.4845,-2.4842,-2.4846,0,0,-2.4835,-2.4833,0,0,0,0,0,0,0,0,-2.5111,-2.5105,-2.5042,-2.5038,-2.5032,-2.4977,-2.4997,-2.4947,-2.4936,-2.4971,-2.4933,-2.4932,-2.489,-2.4884,-2.4871,-2.4842,-2.4839,-2.4834,-2.4833,-2.4832,-2.4831,0,0,0,0,0,0,0,-2.5115,-2.5108,-2.5046,-2.5041,-2.5035,-2.5017,-2.5009,-2.4987,-2.4937,-2.4968,-2.4963,-2.4956,-2.4887,-2.4874,-2.4869,-2.4837,-2.4834,-2.4832,-2.4831,-2.483,-2.4809,-2.4809,0,0,0,0,0,0,-2.5126,-2.5111,-2.5049,-2.5044,-2.5071,-2.5017,-2.5007,-2.4995,-2.4937,-2.4927,-2.4956,-2.4953,-2.4879,-2.4872,-2.4865,-2.4867,-2.4832,-2.4829,-2.4828,-2.4808,-2.4809,-2.481,0,0,0,0,0,0,-2.5128,-2.5121,-2.5052,-2.5077,-2.5066,-2.5016,-2.5004,-2.4994,-2.4981,-2.4928,-2.4918,-2.4953,-2.4878,-2.4869,-2.4853,-2.4863,-2.4828,-2.4826,-2.4806,-2.4808,-2.4809,-2.4871,0,0,0,0,0,0,-2.5131,-2.5122,-2.5125,-2.5077,-2.5065,-2.5043,-2.5004,-2.4994,-2.4978,-2.4973,-2.4922,-2.4913,-2.4876,-2.4857,-2.485,-2.4859,-2.4824,-2.4805,-2.4807,-2.4809,-2.4867,-2.4874,-2.488,0,0,0,0,0,-2.5134,-2.5143,-2.5126,-2.5118,-2.5068,-2.5044,-2.5036,-2.4997,-2.4979,-2.4981,-2.4947,-2.4914,-2.4863,-2.4856,-2.4847,-2.4856,-2.4804,-2.4807,-2.4809,-2.4865,-2.4873,-2.488,0,0,0,0,0,0,-2.519,-2.5136,-2.5116,-2.511,-2.5083,-2.5033,-2.5033,-2.5006,-2.4981,-2.4976,-2.4925,-2.4914,-2.4904,-2.4878,-2.487,-2.4857,-2.4829,-2.483,-2.4875,-2.4882,-2.4888,-2.4894,-2.4822,0,0,0,0,0,-2.5203,-2.519,-2.5142,-2.5141,-2.5129,-2.5084,-2.5071,-2.5044,-2.5012,-2.4999,-2.4963,-2.4931,-2.4908,-2.4893,-2.4869,-2.4863,-2.4851,-2.4865,-2.4871,-2.4877,-2.4878,-2.4874,-2.4879,-2.4817,-2.4817,-2.4817,0,0,-2.5226,-2.5195,-2.519,-2.5152,-2.5127,-2.5113,-2.5074,-2.506,-2.5049,-2.4995,-2.4979,-2.4952,-2.4912,-2.4902,-2.4896,-2.488,-2.4892,-2.4879,-2.4884,-2.4882,-2.4876,-2.4882,-2.4888,-2.4819,-2.4818,-2.4818,0,0,-2.5263,-2.5239,-2.5236,-2.5213,-2.5178,-2.5148,-2.5147,-2.5102,-2.5084,-2.5067,-2.5027,-2.5011,-2.4972,-2.4946,-2.4928,-2.4957,-2.4926,-2.495,-2.4982,-2.4979,-2.4984,-2.4988,-2.4999,-2.5003,-2.4951,-2.4952,-2.4952,0,-2.5297,-2.5277,-2.5238,-2.5228,-2.5212,-2.5166,-2.5163,-2.5141,-2.5098,-2.5087,-2.5071,-2.5023,-2.4993,-2.4976,-2.4984,-2.497,-2.4967,-2.4956,-2.4987,-2.499,-2.4994,-2.5003,-2.5008,-2.4955,-2.4954,-2.4954,-2.4954,0,-2.532,-2.5307,-2.5309,-2.5273,-2.5257,-2.525,-2.5208,-2.5196,-2.517,-2.5142,-2.5125,-2.5088,-2.5056,-2.505,-2.5022,-2.5029,-2.5021,-2.4997,-2.4968,-2.5004,-2.5012,-2.5015,-2.4959,-2.4958,-2.4957,-2.4956,0,0,-2.539,-2.5334,-2.5335,-2.5318,-2.5276,-2.5264,-2.5254,-2.5226,-2.5218,-2.5189,-2.518,-2.5149,-2.5127,-2.5106,-2.5075,-2.5072,-2.5099,-2.5048,-2.5046,-2.5059,-2.5105,-2.5125,-2.513,-2.5079,-2.5079,-2.508,-2.5109,0,-2.542,-2.5404,-2.5369,-2.5363,-2.535,-2.5307,-2.5299,-2.5271,-2.5244,-2.5227,-2.5196,-2.5176,-2.5148,-2.5136,-2.5131,-2.5097,-2.5108,-2.5094,-2.5068,-2.5067,-2.508,-2.5134,-2.5154,-2.5183,-2.5112,-2.5112,-2.5113,0,-2.5454,-2.5432,-2.5426,-2.5386,-2.5379,-2.5373,-2.5345,-2.533,-2.5297,-2.5278,-2.5257,-2.5224,-2.521,-2.5184,-2.5163,-2.5155,-2.5142,-2.5124,-2.5124,-2.512,-2.5092,-2.5132,-2.5191,-2.5196,-2.5117,-2.5117,-2.5116,0,-2.5506,-2.5475,-2.5467,-2.5454,-2.5407,-2.5404,-2.5384,-2.5351,-2.5337,-2.5311,-2.5301,-2.5274,-2.5258,-2.5237,-2.5197,-2.5182,-2.5181,-2.5151,-2.5163,-2.5165,-2.5165,-2.5165,-2.5224,-2.5156,-2.5156,-2.5156,-2.5156,0,-2.5544,-2.5542,-2.5491,-2.5486,-2.5482,-2.5441,-2.5438,-2.5413,-2.5384,-2.5373,-2.5332,-2.5322,-2.527,-2.5253,-2.5221,-2.521,-2.5202,-2.5185,-2.5177,-2.519,-2.5192,-2.518,-2.5177,-2.5157,-2.5157,-2.5157,-2.5156,0,-2.5602,-2.5568,-2.5557,-2.5515,-2.5504,-2.5503,-2.5465,-2.5458,-2.543,-2.5416,-2.5411,-2.5365,-2.5343,-2.5302,-2.5267,-2.5246,-2.5241,-2.5226,-2.5253,-2.5248,-2.5263,-2.5263,-2.5316,-2.5321,-2.525,-2.5251,-2.5252,0,-2.5629,-2.5627,-2.5585,-2.5577,-2.5559,-2.5544,-2.5531,-2.549,-2.5477,-2.5441,-2.5438,-2.5414,-2.5393,-2.5359,-2.5322,-2.5295,-2.5279,-2.53,-2.5275,-2.5288,-2.528,-2.5282,-2.5281,-2.5306,-2.5307,-2.5308,-2.5308,0,-2.568,-2.5664,-2.5647,-2.5626,-2.5611,-2.5591,-2.5568,-2.5563,-2.5516,-2.5503,-2.5483,-2.5466,-2.5433,-2.5409,-2.5378,-2.5354,-2.5323,-2.5317,-2.5318,-2.5331,-2.5347,-2.5339,-2.527,-2.5315,-2.5315,-2.5314,-2.5314,-2.5313,-2.5723,-2.572,-2.5692,-2.5675,-2.5654,-2.5635,-2.5627,-2.5599,-2.5582,-2.5554,-2.553,-2.5511,-2.5479,-2.5434,-2.5413,-2.5396,-2.5381,-2.5383,-2.5383,-2.5385,-2.539,-2.535,-2.539,-2.5389,-2.5389,-2.5389,-2.5389,0,-2.5774,-2.5754,-2.5739,-2.571,-2.5697,-2.5672,-2.5646,-2.5636,-2.5621,-2.5595,-2.5576,-2.5552,-2.5529,-2.5491,-2.5465,-2.5459,-2.5444,-2.5453,-2.5453,-2.5449,-2.5404,-2.5406,-2.5466,-2.5466,-2.5466,-2.5466,-2.5466,-2.5466,-2.5798,-2.5792,-2.5773,-2.5755,-2.5734,-2.5718,-2.5706,-2.5687,-2.5666,-2.5643,-2.5625,-2.5602,-2.557,-2.5542,-2.5519,-2.5508,-2.55,-2.5514,-2.5499,-2.5459,-2.5451,-2.5444,-2.5446,-2.5513,-2.5513,-2.5545,-2.5545,-2.5545]}]]